TimeEDT,TemperatureF,Dew PointF,Humidity,Sea Level PressureIn,VisibilityMPH,Wind Direction,Wind SpeedMPH,Gust SpeedMPH,PrecipitationIn,Events,Conditions,WindDirDegrees,DateUTC
12:54 AM,57.0,55.0,93,30.13,10.0,Calm,Calm,-,N/A,,Clear,0,2013-05-03 04:54:00
1:54 AM,55.9,54.0,93,30.13,10.0,Calm,Calm,-,N/A,,Clear,0,2013-05-03 05:54:00
2:54 AM,55.9,54.0,93,30.13,10.0,Calm,Calm,-,N/A,,Clear,0,2013-05-03 06:54:00
3:54 AM,54.0,52.0,93,30.13,10.0,Calm,Calm,-,N/A,,Clear,0,2013-05-03 07:54:00
4:54 AM,57.0,51.1,81,30.14,10.0,SE,3.5,-,N/A,,Clear,130,2013-05-03 08:54:00
5:54 AM,53.1,48.9,86,30.14,10.0,Calm,Calm,-,N/A,,Clear,0,2013-05-03 09:54:00
6:54 AM,53.1,50.0,89,30.16,10.0,Calm,Calm,-,N/A,,Clear,0,2013-05-03 10:54:00
7:54 AM,60.1,51.1,72,30.16,10.0,Calm,Calm,-,N/A,,Clear,0,2013-05-03 11:54:00
8:54 AM,62.1,48.9,62,30.16,10.0,SSE,6.9,-,N/A,,Clear,160,2013-05-03 12:54:00
9:54 AM,66.0,46.0,48,30.16,10.0,SSE,9.2,-,N/A,,Clear,150,2013-05-03 13:54:00
10:54 AM,68.0,45.0,43,30.14,10.0,SE,12.7,18.4,N/A,,Clear,130,2013-05-03 14:54:00
11:54 AM,70.0,43.0,38,30.13,10.0,SSE,8.1,16.1,N/A,,Clear,150,2013-05-03 15:54:00
12:54 PM,73.0,37.0,27,30.11,10.0,ESE,16.1,-,N/A,,Clear,110,2013-05-03 16:54:00
1:54 PM,73.9,37.0,26,30.09,10.0,ESE,18.4,25.3,N/A,,Clear,120,2013-05-03 17:54:00
2:54 PM,75.0,39.0,27,30.08,10.0,SE,15.0,21.9,N/A,,Clear,140,2013-05-03 18:54:00
3:54 PM,75.0,36.0,24,30.06,10.0,SE,11.5,24.2,N/A,,Clear,130,2013-05-03 19:54:00
4:54 PM,77.0,37.9,24,30.04,10.0,East,13.8,20.7,N/A,,Clear,100,2013-05-03 20:54:00
5:54 PM,77.0,37.0,24,30.04,10.0,SE,10.4,19.6,N/A,,Clear,140,2013-05-03 21:54:00
6:54 PM,75.9,39.0,26,30.03,10.0,SSE,9.2,-,N/A,,Clear,150,2013-05-03 22:54:00
7:54 PM,73.9,35.1,24,30.03,10.0,SE,12.7,-,N/A,,Clear,130,2013-05-03 23:54:00
8:54 PM,70.0,37.9,31,30.06,10.0,SSE,6.9,-,N/A,,Clear,160,2013-05-04 00:54:00
9:54 PM,68.0,37.9,33,30.07,10.0,SSE,6.9,-,N/A,,Clear,160,2013-05-04 01:54:00
10:54 PM,66.0,39.0,37,30.07,10.0,SE,8.1,-,N/A,,Clear,140,2013-05-04 02:54:00
11:54 PM,64.9,41.0,42,30.08,10.0,SE,10.4,-,N/A,,Clear,140,2013-05-04 03:54:00